Simultaneous Nadir Overpasses (SNOs) Predictions

Prediction of SNOs between AQUA and METOP-A Satellite Orbit:

Table of predicted SNOs for the next 14.0 days since TLE Epoch: 3/4/2016
Index Date (AQUA) Time (AQUA) Lat,Lon (AQUA) SZA (AQUA ) Date (METOP-A) Time (METOP-A) Lat,Lon (METOP-A) SZA (METOP-A ) Distance(km) Time Diff (sec)
1 03/04/2016 22:00:34 -73.89, 23.96 100.02 03/04/2016 22:00:28 -73.90, 24.01 100.01 1.97 6
2 03/04/2016 22:50:03 73.96,-168.56 80.05 03/04/2016 22:51:07 73.93,-168.57 80.01 2.65 64
3 03/07/2016 16:45:24 73.83, -77.12 78.84 03/07/2016 16:44:12 73.83, -77.07 78.85 1.54 72
4 03/07/2016 17:34:51 -73.91, 90.36 101.10 03/07/2016 17:34:53 -73.89, 90.38 101.12 2.42 2
5 03/07/2016 18:24:20 73.98,-102.17 78.97 03/07/2016 18:25:31 73.96,-102.09 78.94 3.09 71
6 03/10/2016 12:19:40 73.82, -10.66 77.72 03/10/2016 12:18:37 73.81, -10.72 77.72 2.10 63
7 03/10/2016 13:09:07 -73.89, 156.82 102.22 03/10/2016 13:09:17 -73.92, 156.87 102.20 3.28 10
8 03/10/2016 13:58:40 74.18, -36.19 78.08 03/10/2016 13:59:51 74.19, -35.13 78.04 32.08 71
9 03/13/2016 07:53:55 73.83, 55.76 76.61 03/13/2016 07:53:00 73.84, 55.74 76.63 0.89 55
10 03/13/2016 08:43:22 -73.90,-136.75 103.33 03/13/2016 08:43:41 -73.90,-136.78 103.33 0.94 19
11 03/13/2016 09:33:02 74.55, 29.37 77.37 03/13/2016 09:34:08 74.51, 32.09 77.21 80.92 66
12 03/16/2016 03:28:11 73.86, 122.14 75.53 03/16/2016 03:27:24 73.86, 122.20 75.53 1.84 47
13 03/16/2016 04:17:38 -73.92, -70.36 104.42 03/16/2016 04:18:05 -73.93, -70.31 104.42 1.60 27




NCC Satellite Simultaneous Nadir Overpasses (SNOs) Prediction Service
